| time (UTC) | temp F | wind direction | speed MPH | gust MPH | rain 1hr in | rain 24hr in | rain mn in | humidity % | barometer mb |
| 20260505094526 | 44 | 232 | 0.0 | 0.0 | 0.00 | 0.07 | 0.00 | 90 | 1011.6 |
| 20260505093023 | 44 | 231 | 0.0 | 0.0 | 0.00 | 0.07 | 0.00 | 89 | 1011.6 |
| 20260505091525 | 44 | 232 | 0.0 | 0.0 | 0.00 | 0.07 | 0.00 | 89 | 1011.6 |
| 20260505090024 | 44 | 232 | 1.0 | 2.0 | 0.00 | 0.07 | 0.00 | 89 | 1011.8 |
| 20260505084527 | 44 | 231 | 0.0 | 3.0 | 0.00 | 0.07 | 0.00 | 89 | 1012.0 |
| 20260505083024 | 44 | 227 | 0.0 | 1.0 | 0.00 | 0.07 | 0.00 | 89 | 1012.2 |
| 20260505081547 | 44 | 227 | 1.0 | 4.0 | 0.00 | 0.07 | 0.00 | 89 | 1012.4 |
| 20260505080023 | 44 | 233 | 1.0 | 3.0 | 0.00 | 0.07 | 0.00 | 90 | 1012.3 |
| 20260505074522 | 44 | 233 | 1.0 | 4.0 | 0.00 | 0.07 | 0.00 | 89 | 1012.5 |
| 20260505073025 | 44 | 240 | 1.0 | 3.0 | 0.00 | 0.07 | 0.00 | 90 | 1012.5 |
| 20260505071543 | 44 | 249 | 1.0 | 4.0 | 0.00 | 0.07 | 0.00 | 90 | 1012.5 |
| 20260505070024 | 44 | 232 | 1.0 | 3.0 | 0.01 | 0.07 | 0.00 | 90 | 1012.6 |
| 20260505064522 | 44 | 238 | 0.0 | 3.0 | 0.01 | 0.07 | 0.07 | 90 | 1012.5 |
| 20260505063024 | 45 | 244 | 2.0 | 4.0 | 0.01 | 0.07 | 0.07 | 90 | 1012.6 |
| 20260505061520 | 45 | 234 | 0.0 | 3.0 | 0.01 | 0.07 | 0.07 | 88 | 1012.6 |
| 20260505060022 | 46 | 234 | 0.0 | 3.0 | 0.00 | 0.06 | 0.06 | 85 | 1012.7 |
| 20260505054541 | 46 | 234 | 1.0 | 2.0 | 0.00 | 0.06 | 0.06 | 83 | 1012.9 |
| 20260505053017 | 46 | 232 | 0.0 | 2.0 | 0.00 | 0.06 | 0.06 | 82 | 1012.8 |
| 20260505051518 | 46 | 232 | 0.0 | 1.0 | 0.00 | 0.06 | 0.06 | 82 | 1012.8 |
| 20260505041538 | 45 | 198 | 1.0 | 4.0 | 0.00 | 0.06 | 0.06 | 82 | 1012.3 |
| 20260505040035 | 45 | 234 | 1.0 | 2.0 | 0.00 | 0.06 | 0.06 | 82 | 1012.1 |
| 20260505034553 | 46 | 234 | 1.0 | 3.0 | 0.00 | 0.06 | 0.06 | 81 | 1012.1 |
| 20260505033034 | 46 | 222 | 0.0 | 2.0 | 0.00 | 0.06 | 0.06 | 83 | 1011.9 |
| 20260505031533 | 46 | 249 | 0.0 | 1.0 | 0.00 | 0.06 | 0.06 | 82 | 1011.6 |
| 20260505030034 | 46 | 212 | 0.0 | 1.0 | 0.00 | 0.06 | 0.06 | 83 | 1011.5 |
| 20260505024531 | 47 | 211 | 1.0 | 2.0 | 0.00 | 0.06 | 0.06 | 80 | 1011.4 |
| 20260505023033 | 49 | 63 | 1.0 | 3.0 | 0.00 | 0.06 | 0.06 | 76 | 1011.7 |
| 20260505021533 | 50 | 35 | 1.0 | 5.0 | 0.01 | 0.06 | 0.06 | 72 | 1011.7 |
| 20260505020015 | 49 | 238 | 2.0 | 9.0 | 0.04 | 0.06 | 0.06 | 71 | 1011.6 |
| 20260505014535 | 49 | 292 | 4.0 | 11.0 | 0.05 | 0.06 | 0.06 | 73 | 1011.5 |
| 20260505013018 | 47 | 225 | 2.0 | 6.0 | 0.06 | 0.06 | 0.06 | 81 | 1011.1 |
| 20260505011534 | 48 | 244 | 4.0 | 10.0 | 0.05 | 0.05 | 0.05 | 76 | 1011.6 |
| 20260505010016 | 52 | 237 | 9.0 | 20.0 | 0.02 | 0.02 | 0.02 | 65 | 1011.5 |
| 20260505004534 | 56 | 355 | 2.0 | 8.0 | 0.01 | 0.01 | 0.01 | 57 | 1010.4 |
| 20260505003054 | 59 | 144 | 3.0 | 12.0 | 0.00 | 0.00 | 0.00 | 47 | 1009.9 |
| 20260505001554 | 60 | 90 | 2.0 | 6.0 | 0.00 | 0.00 | 0.00 | 42 | 1009.4 |
| 20260505000031 | 61 | 188 | 2.0 | 9.0 | 0.00 | 0.00 | 0.00 | 42 | 1009.3 |
| 20260504234552 | 62 | 81 | 3.0 | 8.0 | 0.00 | 0.00 | 0.00 | 41 | 1008.7 |
| 20260504233029 | 62 | 63 | 2.0 | 8.0 | 0.00 | 0.00 | 0.00 | 41 | 1008.4 |
| 20260504231547 | 61 | 54 | 5.0 | 10.0 | 0.00 | 0.00 | 0.00 | 43 | 1008.4 |
| 20260504230028 | 60 | 148 | 1.0 | 2.0 | 0.00 | 0.00 | 0.00 | 46 | 1008.4 |
| 20260504224526 | 59 | 111 | 0.0 | 3.0 | 0.00 | 0.00 | 0.00 | 46 | 1008.3 |
| 20260504223027 | 59 | 217 | 2.0 | 21.0 | 0.00 | 0.00 | 0.00 | 47 | 1008.9 |
| 20260504221546 | 58 | 321 | 0.0 | 2.0 | 0.00 | 0.00 | 0.00 | 60 | 1009.1 |
| 20260504220028 | 60 | 109 | 2.0 | 5.0 | 0.00 | 0.00 | 0.00 | 46 | 1009.1 |
| 20260504214526 | 62 | 109 | 3.0 | 10.0 | 0.00 | 0.00 | 0.00 | 41 | 1008.8 |
| 20260504213028 | 64 | 64 | 6.0 | 20.0 | 0.00 | 0.00 | 0.00 | 35 | 1008.3 |
| 20260504211526 | 67 | 71 | 4.0 | 11.0 | 0.00 | 0.00 | 0.00 | 31 | 1008.0 |
| 20260504210024 | 68 | 88 | 7.0 | 10.0 | 0.00 | 0.00 | 0.00 | 29 | 1007.9 |
| 20260504204525 | 68 | 76 | 3.0 | 7.0 | 0.00 | 0.00 | 0.00 | 30 | 1008.1 |
| 20260504203024 | 68 | 17 | 4.0 | 8.0 | 0.00 | 0.00 | 0.00 | 28 | 1008.3 |
| 20260504201525 | 68 | 53 | 8.0 | 15.0 | 0.00 | 0.00 | 0.00 | 29 | 1008.7 |
| 20260504200024 | 69 | 248 | 3.0 | 9.0 | 0.00 | 0.00 | 0.00 | 27 | 1008.5 |
| 20260504194525 | 69 | 250 | 6.0 | 14.0 | 0.00 | 0.00 | 0.00 | 31 | 1008.7 |
| 20260504193024 | 68 | 325 | 1.0 | 3.0 | 0.00 | 0.00 | 0.00 | 27 | 1008.9 |
| 20260504191526 | 69 | 287 | 2.0 | 5.0 | 0.00 | 0.00 | 0.00 | 27 | 1008.9 |
| 20260504190023 | 68 | 70 | 2.0 | 7.0 | 0.00 | 0.00 | 0.00 | 27 | 1009.1 |
| 20260504184546 | 68 | 55 | 3.0 | 11.0 | 0.00 | 0.00 | 0.00 | 25 | 1009.4 |
| 20260504183023 | 68 | 280 | 4.0 | 12.0 | 0.00 | 0.00 | 0.00 | 25 | 1009.8 |
| 20260504181520 | 68 | 220 | 2.0 | 6.0 | 0.00 | 0.00 | 0.00 | 28 | 1009.9 |
| 20260504180040 | 67 | 98 | 2.0 | 7.0 | 0.00 | 0.00 | 0.00 | 27 | 1010.2 |
| 20260504174517 | 68 | 247 | 1.0 | 9.0 | 0.00 | 0.00 | 0.00 | 28 | 1010.3 |
| 20260504173019 | 66 | 241 | 3.0 | 11.0 | 0.00 | 0.00 | 0.00 | 30 | 1010.8 |
| 20260504171517 | 65 | 109 | 6.0 | 13.0 | 0.00 | 0.00 | 0.00 | 32 | 1011.0 |